Weather History for KSZL - June, 2013

Change the Weather History Date:

Sunday, June 16, 2013

  Actual Average Record
Temperature  
Mean Temperature 74 °F -  
Max Temperature 82 °F 81 °F 93 °F (2006)
Min Temperature 67 °F 62 °F 57 °F (1999)
Cooling Degree Days 10    
Growing Degree Days 24 (Base 50)    
Moisture  
Dew Point 73 °F    
Average Humidity 97    
Maximum Humidity 100    
Minimum Humidity 80    
Precipitation  
Precipitation 0.01 in - - ()
Sea Level Pressure  
Sea Level Pressure 29.96 in    
Wind  
Wind Speed 6 mph (East)    
Max Wind Speed 10 mph    
Max Gust Speed -    
Visibility 10 miles    
Events      
Averages and records for this station are not official NWS values.
T = Trace of Precipitation, MM = Missing Value Source: NWS Daily Summary

Daily Weather History Graph

Daily Weather History Graph

Search for Another Location

Airport or City:

Trip Planner

Search our weather history database for the weather conditions in past years. The results will help you decide how hot, cold, wet, or windy it might be!

Date:

Astronomy

Jun. 16, 2013 Rise Set
Actual Time 5:48 AM CDT 8:41 PM CDT
Civil Twilight 5:16 AM CDT 9:13 PM CDT
Nautical Twilight 4:36 AM CDT 9:53 PM CDT
Astronomical Twilight 3:50 AM CDT 10:39 PM CDT
Moon 1:21 PM CDT (6/16) 12:50 AM CDT (6/16)
Length of Visible Light 15h 56m
Length of Day
14h 52m
Waxing Crescent, 50% of the Moon is Illuminated
Jun 16
Waxing Crescent
Jun 16
First Quarter
Jun 23
Full
Jun 29
Last Quarter
Jul 8
New

Hourly Weather History & Observations

Time (CDT) Temp. Heat Index Dew Point Humidity Pressure Visibility Wind Dir Wind Speed Gust Speed Precip Events Conditions
12:07 AM 69.8 °F - 69.8 °F 100% 29.98 in 10.0 mi NNW 8.1 mph - N/A   Overcast
12:10 AM 69.8 °F - 69.8 °F 100% 29.98 in 10.0 mi NNW 8.1 mph - N/A   Light Drizzle
12:42 AM 68.0 °F - 68.0 °F 100% 29.96 in 10.0 mi NNE 3.5 mph - N/A   Scattered Clouds
12:58 AM 67.6 °F - 67.6 °F 100% 29.94 in 10.0 mi East 1.2 mph - 0.01 in   Scattered Clouds
1:58 AM 67.6 °F - 67.6 °F 100% 29.94 in 10.0 mi SSE 3.5 mph - N/A   Scattered Clouds
2:58 AM 68.0 °F - 68.0 °F 100% 29.96 in 10.0 mi ESE 5.8 mph - N/A   Scattered Clouds
3:58 AM 67.8 °F - 67.8 °F 100% 29.96 in 10.0 mi SSE 3.5 mph - N/A   Mostly Cloudy
4:58 AM 67.6 °F - 67.6 °F 100% 29.95 in 10.0 mi South 3.5 mph - N/A   Scattered Clouds
5:58 AM 67.5 °F - 67.5 °F 100% 29.96 in 10.0 mi South 5.8 mph - N/A   Scattered Clouds
6:58 AM 68.5 °F - 68.5 °F 100% 29.98 in 10.0 mi South 8.1 mph - N/A   Scattered Clouds
7:43 AM 69.8 °F - 69.8 °F 100% 29.97 in 10.0 mi South 10.4 mph - N/A   Mostly Cloudy
7:58 AM 70.0 °F - 70.0 °F 100% 29.96 in 10.0 mi South 10.4 mph - N/A   Scattered Clouds
8:03 AM 69.8 °F - 69.8 °F 100% 29.97 in 10.0 mi South 10.4 mph - N/A   Mostly Cloudy
8:43 AM 69.8 °F - 69.8 °F 100% 29.99 in 10.0 mi Calm Calm - N/A   Overcast
8:58 AM 70.9 °F - 70.9 °F 100% 29.98 in 10.0 mi SSW 8.1 mph - N/A   Overcast
9:03 AM 71.6 °F - 71.6 °F 100% 29.98 in 10.0 mi South 10.4 mph - N/A   Overcast
9:38 AM 73.4 °F - 73.4 °F 100% 29.97 in 10.0 mi South 8.1 mph - N/A   Overcast
9:58 AM 73.0 °F - 73.0 °F 100% 29.96 in 10.0 mi SSW 9.2 mph - N/A   Overcast
10:03 AM 73.4 °F - 73.4 °F 100% 29.96 in 10.0 mi SSW 8.1 mph - N/A   Overcast
10:58 AM 75.6 °F - 75.6 °F 100% 29.94 in 10.0 mi SSW 5.8 mph - N/A   Overcast
11:23 AM 77.0 °F - 77.0 °F 100% 29.96 in 10.0 mi WSW 8.1 mph - N/A   Overcast
11:58 AM 76.5 °F - 76.5 °F 100% 29.96 in 10.0 mi WSW 9.2 mph - N/A   Overcast
12:03 PM 77.0 °F - 77.0 °F 100% 29.97 in 10.0 mi SW 10.4 mph - N/A   Overcast
12:28 PM 77.0 °F - 77.0 °F 100% 29.97 in 10.0 mi West 8.1 mph - N/A   Overcast
12:58 PM 77.7 °F - 77.2 °F 98% 29.96 in 10.0 mi West 5.8 mph - N/A   Overcast
1:03 PM 77.0 °F - 77.0 °F 100% 29.97 in 10.0 mi WNW 6.9 mph - N/A   Overcast
1:28 PM 77.0 °F - 77.0 °F 100% 29.98 in 10.0 mi WNW 5.8 mph - N/A   Mostly Cloudy
1:58 PM 78.8 °F - 77.0 °F 94% 29.96 in 10.0 mi Variable 1.2 mph - N/A   Mostly Cloudy
2:28 PM 80.6 °F 86.2 °F 75.2 °F 84% 29.96 in 10.0 mi Variable 2.3 mph - N/A   Mostly Cloudy
2:58 PM 80.8 °F 87.1 °F 76.3 °F 86% 29.95 in 10.0 mi NNE 3.5 mph - N/A   Overcast
3:23 PM 80.6 °F 87.1 °F 77.0 °F 89% 29.95 in 10.0 mi NE 2.3 mph - N/A   Mostly Cloudy
3:58 PM 80.2 °F 86.1 °F 76.8 °F 89% 29.94 in 10.0 mi North 4.6 mph - N/A   Mostly Cloudy
4:58 PM 81.1 °F 88.9 °F 77.9 °F 90% 29.93 in 10.0 mi NE 6.9 mph - N/A   Mostly Cloudy
5:08 PM 80.6 °F 88.1 °F 78.8 °F 94% 29.93 in 10.0 mi NE 6.9 mph - N/A   Scattered Clouds
5:58 PM 82.8 °F 90.7 °F 76.1 °F 80% 29.93 in 10.0 mi NNE 4.6 mph - N/A   Partly Cloudy
6:58 PM 81.1 °F 87.6 °F 75.9 °F 84% 29.91 in 10.0 mi NE 5.8 mph - N/A   Scattered Clouds
7:58 PM 79.9 °F - 77.2 °F 91% 29.90 in 10.0 mi NNE 3.5 mph - N/A   Clear
8:58 PM 74.3 °F - 74.3 °F 100% 29.92 in 10.0 mi NNE 5.8 mph - N/A   Clear
9:58 PM 75.2 °F - 75.2 °F 100% 29.94 in 10.0 mi NE 5.8 mph - N/A   Partly Cloudy
10:00 PM 75.2 °F - 75.2 °F 100% 29.95 in 10.0 mi NE 5.8 mph - N/A   Light Drizzle
10:02 PM 75.2 °F - 75.2 °F 100% 29.95 in 10.0 mi NE 5.8 mph - N/A   Clear
10:58 PM 73.2 °F - 73.2 °F 100% 29.96 in 10.0 mi NE 5.8 mph - 0.00 in   Clear
11:28 PM 73.4 °F - 73.4 °F 100% 29.98 in 10.0 mi North 3.5 mph - N/A   Mostly Cloudy
11:58 PM 73.4 °F - 73.4 °F 100% 29.96 in 10.0 mi NE 3.5 mph - N/A   Mostly Cloudy